Regional Weather Roundup
Issued by NWS Pendleton, OR

Home | Current Version | Previous Version | Text Only | Print | Product List | Glossary On
Versions: 1 2 3 4 5 6 7 8 9 10 11 12 13 14 15 16 17 18 19 20 21 22 23 24 25 26 27 28 29 30 31 32 33 34 35 36 37 38 39 40 41 42 43 44 45 46 47 48 49 50
879
ASUS46 KPDT 162225
RWRPDT
PENDLETON REGIONAL WEATHER ROUNDUP
NATIONAL WEATHER SERVICE PENDLETON OREGON
300 PM PDT WED AUG 16 2017

NOTE: FAIR INDICATES FEW OR NO CLOUDS BELOW 12,000 FEET WITH NO
SIGNIFICANT WEATHER AND/OR OBSTRUCTIONS TO VISIBILITY.

# INDICATES UNOFFICIAL STATION AND DATA

WAZ520-162310-
EAST SLOPES OF WASHINGTON CASCADES

CITY            SKY/WX      TMP DP  RH  WIND    PRES   REMARKS
#CLE ELUM HS    N/A         77  46  33  SW7     29.97R
#CLE ELUM LAKE  N/A         73  51  46  NW1     30.13R
#EASTON DOT     N/A         75  48  38  N6      N/A
#ELK HTS DOT    N/A         80  79  97  W6G26   N/A
#GLENWOOD       N/A         85  57  39  S8      29.91F
#NELSON 3SW     N/A         76  50  40  CALM    30.14R
#NILE           N/A         82  51  34  W5      29.21F
#TROUT LAKE 1NE N/A         81  54  39  W9      29.94S
#TROUT LAKE 1E  N/A         84  54  36  W3      30.04S
$$

WAZ521-162310-
SIMCOE HIGHLANDS

CITY            SKY/WX      TMP DP  RH  WIND    PRES   REMARKS
#BICKLETON HS   N/A         82  51  34  W1      29.93F
#CENTERVILLE 1SWN/A         84  53  34  W15     29.88S
#GOLDENDALE 1NE N/A         85  29  13  SW5     N/A
#GOLDENDALE 4W  N/A         87  24  10  W9      30.01F
#GOODNOE HILLS  N/A         90  46  22  SW15    N/A    HX 87
#PITT 4SE       N/A         80  52  38  W13     29.96F
$$

WAZ026-162310-
KITTITAS VALLEY

CITY            SKY/WX      TMP DP  RH  WIND    PRES   REMARKS
ELLENSBURG AP   SUNNY       89  50  26  NW23G35 29.96S
#ELLENSBURG CWU N/A         84  52  33  N15     29.82F
#ELLENSBURG 3NE N/A         82  55  40  W10G25  28.03S
#ELLENSBURG 1E  N/A         85  51  31  W8      29.91S
#KITTITAS 3S    N/A         89  40  18  NW15G25 29.85F
#MANASTASH RDG  N/A         84  84  100 NW16G28 N/A
#ROCKY CYN DOT  N/A         86  53  32  W24G33  N/A
#RYEGRASS DOT   N/A         81  47  30  S25G35  N/A
$$

WAZ027-162310-
YAKIMA VALLEY

CITY            SKY/WX      TMP DP  RH  WIND    PRES   REMARKS
SUNNYSIDE AP    N/A         84  48  29  CALM    29.92F
YAKIMA AIRPORT  SUNNY       91  49  24  VRB5    29.93F HX 88
YAKIMA-VAGABOND SUNNY       89  45  22  S8      29.92F
#DONALD 2NE     N/A         92  27  10  S1      28.77F HX 88
#GRANDVIEW      N/A         85  45  25  CALM    29.90F
#MABTON         N/A         87  52  30  CALM    29.91F
#MOXEE 2E       N/A         85  N/A N/A S9      29.83F
#NACHES 2SW     N/A         86  54  34  W8      29.97F
#OUTLOOK DOT    N/A         87  44  22  SE1     29.90F
#PARKER DOT     N/A         88  49  26  W6      29.92F
#TERRACE HTS    N/A         89  53  29  CALM    29.84F
#TOPPENISH      N/A         85  52  32  E1      29.80F
#I82 S UMTANUM RN/A         87  50  28  S9      N/A
#UNION GAP DOT  N/A         89  49  25  S7      29.95F
#W YAKIMA       N/A         88  51  28  SE5     29.87F
#WHITE SWAN 5E  N/A         87  54  32  CALM    29.88F
#WILEY CITY 3W  N/A         93  37  14  CALM    29.91F HX 89
#ZILLAH DOT     N/A         87  46  24  E5      N/A
$$

WAZ028-162310-
LOWER COLUMBIA BASIN...WASHINGTON

CITY            SKY/WX      TMP DP  RH  WIND    PRES   REMARKS
HANFORD         MOSUNNY     91  40  17  SE5     29.91F HX 87
PASCO           SUNNY       89  43  20  VRB3    29.92F
PROSSER AWOS    N/A         88  52  29  W7      29.94F
RICHLAND AWOS   SUNNY       92  45  20  CALM    29.90F HX 88
#BENTON CITY    N/A         87  48  26  SW1     29.79F
#CONNELL 5N     N/A         87  49  27  S3      29.90F
#CONNELL 5NW    N/A         84  53  34  S6      29.85F
#ELTOPIA 6NW    N/A         84  53  34  CALM    28.91
#KAHLOTUS       N/A         83  44  25  W7      29.89F
#KENNEWICK 3S   N/A         85  49  29  N1      29.89F
#PATERSON       N/A         87  48  26  SW5     29.88F
#PROSSER DOT    N/A         91  43  19  SW2     29.93F HX 87
#SAGEMOOR 2W    N/A         86  47  26  S5      29.76F
#TOUCHET 2S     N/A         89  53  29  W5      29.87F
#WEST PASCO     N/A         88  56  34  W2      29.90F
$$

WAZ029-162310-
FOOTHILLS OF THE BLUES...WASHINGTON

CITY            SKY/WX      TMP DP  RH  WIND    PRES   REMARKS
WALLA WALLA AP  SUNNY       87  40  19  SW9     29.96F
#CLYDE 6NW      N/A         83  46  27  W8      29.89F
#DAYTON SCHOOL  N/A         83  39  21  SW5     29.97F
#DELANEY DOT    N/A         88  38  17  SW6     29.96F
#LOWDEN 2SE     N/A         89  49  25  CALM    29.88F
#PLEASANT VIEW 1N/A         84  42  23  W6      29.93F
#PRESCOTT       N/A         88  48  25  CALM    29.90F
#WHITMAN COLLEGEN/A         84  44  25  SW2     29.95F
#WAITSBURG 5S   N/A         84  42  23  W2      29.99F
#WAITSBURG 6SSE N/A         84  38  19  S3      29.95F
#WAITSBURG 8N   N/A         85  N/A N/A S9      29.92F
#WALLA WALLA 5E N/A         86  43  22  W7      N/A
#WHITMAN MISSIONN/A         88  50  27  CALM    29.91F
$$

WAZ030-162310-
BLUE MOUNTAINS...WASHINGTON

CITY            SKY/WX      TMP DP  RH  WIND    PRES   REMARKS
#DIXIE 5SE      N/A         77  41  28  W9      29.97F
$$

ORZ009-041-WAZ024-162310-
COLUMBIA RIVER GORGE

CITY            SKY/WX      TMP DP  RH  WIND    PRES   REMARKS
HOOD RIVER AP   SUNNY       82  50  33  SW6     30.00R
THE DALLES AP   SUNNY       89  53  29  N18G26  29.93F
#ARLINGTON AIRPON/A         89  47  24  W14     29.90F
#CELILO DOT     N/A         91  59  34  W8      N/A    HX 90
#LYLE           N/A         83  56  40  W12G33  29.94F
#MARYHILL       N/A         90  47  23  N14G25  N/A    HX 87
#MURDOCK        N/A         86  56  36  NW18G28 29.87F
#RUFUS DOT      N/A         90  N/A N/A W10     N/A
#SMITHVILLE     N/A         86  54  34  N15G28  29.92F

$$

ORZ510-162310-
NORTH CENTRAL OREGON

CITY            SKY/WX      TMP DP  RH  WIND    PRES   REMARKS
#ANTELOPE       N/A         84  47  28  NW3     29.79F
#CHENOWITH 1W   N/A         80  51  36  W31     N/A
#COW CYN RST AREN/A         84  38  19  SW6     N/A
#DUFUR          N/A         88  50  27  W9      29.88F
#DUFUR 9E       N/A         79  50  36  NW16    29.98S
#GRASS VALLEY 1SN/A         86  48  27  NW8     30.05F
#KENT DOT       N/A         86  40  20  NW8     N/A
#MAUPIN SCHOOL  N/A         91  52  27  NE3     29.99F HX 88
#SHANIKO 5WSW   N/A         83  40  22  N3      N/A
#SHANIKO 4NW    N/A         80  40  24  NW6     30.12S
#TYGH VALLEY 2NEN/A         91  51  26  N2      29.90F HX 88
#WAPANITIA AIRPON/A         88  47  24  W5      29.92F
#WASCO 5NE      N/A         88  53  30  W9      29.90F
$$

ORZ511-162310-
CENTRAL OREGON

CITY            SKY/WX      TMP DP  RH  WIND    PRES   REMARKS
BEND AIRPORT    SUNNY       86  37  18  N10     30.10F
MADRAS AIRPORT  SUNNY       86  39  19  CALM    30.06F
PRINEVILLE AP   SUNNY       84  37  19  NW13    30.09F
REDMOND AIRPORT SUNNY       87  34  15  N14     30.08F
#ASHWOOD SCHOOL N/A         84  41  22  N7      30.01F
#BEND 1SW       N/A         82  42  24  E1      N/A
#BEND-AWBREY    N/A         85  44  24  N2      29.94F
#BEND-KIM LN    N/A         86  45  24  NE7     29.89F
#CULVER         N/A         83  44  25  N2      29.86F
#CULVER 8W      N/A         87  24  10  CALM    30.05F
#LAKE BILLY CHINN/A         88  N/A N/A W1      29.96F
#MADRAS 4S      N/A         84  26  12  CALM    N/A
#POWELL BUTTE   N/A         81  34  18  E1      30.04F
#PRINEVILLE     N/A         84  41  22  SW3     30.01F
#PRINEVILLE 3N  N/A         83  48  30  NW12    29.93F
#WARM SPRINGS   N/A         91  50  25  CALM    29.79F HX 88

$$


ORZ509-162310-
EAST SLOPES OF OREGON CASCADES

CITY            SKY/WX      TMP DP  RH  WIND    PRES   REMARKS
SISTERS AWOS    N/A         84  43  24  SE5     30.04F
#LA PINE 4NW    N/A         81  47  30  CALM    30.03S
#LAVA BUTTE DOT N/A         82  42  24  N1      N/A
#SISTERS ODOT   N/A         86  39  19  W6      N/A
#SISTERS 3N     N/A         85  46  26  N3      30.06F
#SUNRIVER       N/A         85  43  23  N2      30.15F
#TUMALO 3W      N/A         83  42  24  N7      29.81F
#WANOGA BUTTE D N/A         73  35  25  E7      N/A

$$

ORZ044-162310-
LOWER COLUMBIA BASIN...OREGON

CITY            SKY/WX      TMP DP  RH  WIND    PRES   REMARKS
HERMISTON       SUNNY       89  44  21  VRB5    29.93F
#BOARDMAN SCHOOLN/A         89  47  24  SW5     29.90F
#ECHO 8SW       N/A         89  47  24  W2      29.94F
#I-84 EX 198 DOTN/A         86  51  30  E15     N/A
#IONE SCHOOL    N/A         88  46  23  W3      29.91F
#UMATILLA       N/A         89  50  26  CALM    29.83F
$$

ORZ507-162310-
NORTHERN FOOTHILLS OF THE BLUES

CITY            SKY/WX      TMP DP  RH  WIND    PRES   REMARKS
PENDLETON AIRPT SUNNY       88  39  18  W9      29.96F
#ADAMS 3WNW     N/A         85  41  21  W6      29.90F
#ATHENA         N/A         84  43  24  CALM    29.94F
#CAYUSE         N/A         84  43  24  W2      29.89F
#HELIX SCHOOL   N/A         85  44  24  W6      29.92F
#HELIX 3N       N/A         83  41  23  SW6     29.96F
#HOLDMAN 5SE    N/A         86  46  25  W8      29.96F
#HOLDMAN 6E     N/A         84  45  26  S9      29.72F
#M-F GROVE ELEM N/A         85  41  21  CALM    29.93F
#M-FREEWATER 5SEN/A         85  55  36  CALM    29.95F
#PENDLETON DNTN N/A         92  46  21  N2      29.95S HX 88
#PDT AQUATIC CTRN/A         88  48  25  W7      29.96S
#PDT SUNRIDGE   N/A         88  43  21  W6      29.96F
#PENDLETON 7NW  N/A         85  53  33  W7      29.16F
#PILOT ROCK 1S  N/A         86  43  22  CALM    29.99F
#PILOT ROCK     N/A         86  41  21  CALM    29.89F
#TUTUILLA       N/A         86  48  27  CALM    30.02F
#UMAPINE 2E     N/A         89  53  29  VRB1    29.91F
#WESTON SCHOOL  N/A         82  37  20  N2      29.88F

$$

ORZ508-162310-
SOUTHERN FOOTHILLS OF THE BLUES

CITY            SKY/WX      TMP DP  RH  WIND    PRES   REMARKS
LEXINGTON       SUNNY       88  41  19  NW13    30.01F
#AJAX           N/A         86  41  21  S9      30.16F
#CONDON 5W      N/A         82  47  29  W5      30.07S
#HEPPNER EOC    N/A         85  44  24  NW3     29.85F
#HEPPNER 4NE    N/A         81  43  26  N8      29.92F
#LEXINGTON 2SE  N/A         89  46  23  CALM    29.93F
#MIKKALO        N/A         87  42  21  NW7     30.10F
#OLEX 4N        N/A         88  47  24  W6      29.93F
#RUGGS 5NE      N/A         87  41  20  NW3     30.20F
#RUGGS 2SW      N/A         83  41  23  NW7     29.93F

$$

ORZ502-503-162310-
BLUE MOUNTAINS

CITY            SKY/WX      TMP DP  RH  WIND    PRES   REMARKS
MEACHAM         SUNNY       78  29  17  VRB7    30.09F
#BATTLE MTN DOT N/A         80  42  26  N3      N/A
#GRANITE        N/A         89  37  16  N2      29.80S
#HEPPNER 15SE   N/A         77  42  29  N5      29.88F
#LADD CYN SMT   N/A         82  44  26  N9      N/A
#LADD CREEK ODOTN/A         83  47  28  NE8     N/A
#LONG CREEK HS  N/A         77  40  26  CALM    N/A
#N POWDER DOT   N/A         82  50  33  NE9     N/A
#PIKES PEAK     N/A         74  40  29  N13     27.99S
#SUMMERVILLE 5NWN/A         84  42  23  W3      30.00F
#TOLLGATE       N/A         69  39  33  S8      29.98F
#TROY SCHOOL    N/A         88  47  24  SE1     29.69F
#UKIAH          N/A         81  43  26  NW7     29.88F
#WESTON 4E      N/A         77  41  28  W6      29.89F
$$

ORZ505-162310-
JOHN DAY BASIN

CITY            SKY/WX      TMP DP  RH  WIND    PRES   REMARKS
JOHN DAY        SUNNY       83  38  20  W7      30.07F
#JOHN DAY KJDY  N/A         84  N/A N/A CALM    30.16R
#ANTELOPE 9ESE  N/A         90  42  19  E6      N/A    HX 86
#DAYVILLE SCHOOLN/A         86  38  18  NW2     29.98F
#MITCHELL       N/A         84  49  30  CALM    30.22F
#MITCHELL 8NW   N/A         84  39  20  NE3     29.99F
#MONUMENT HS    N/A         89  41  19  W6      29.95F
#MT. VERNON 5SE N/A         80  40  24  SE2     30.04F
#SPRAY SCHOOL   N/A         89  N/A N/A CALM    N/A
$$

ORZ506-162310-
OCHOCO AND JOHN DAY HIGHLANDS

CITY            SKY/WX      TMP DP  RH  WIND    PRES   REMARKS
#HORSE RIDGE DO N/A         81  33  18  NW16    N/A
#PAULINA ODOT   N/A         85  31  14  NW8     N/A
#PINE MTN OBS   N/A         68  36  31  NW6     N/A
#PRAIRIE CITY   N/A         85  38  19  CALM    30.19F
#SENECA         N/A         77  N/A N/A NW5     N/A
#SENECA 9NW     N/A         80  38  22  NE2     29.92S
$$

ORZ049-162310-
GRANDE RONDE VALLEY

CITY            SKY/WX      TMP DP  RH  WIND    PRES   REMARKS
#COVE           N/A         84  49  30  N3      30.04F
#COVE SCHOOL    N/A         85  44  24  CALM    30.03F
#COVE 6NW       N/A         83  46  27  N3      29.91F
#ELGIN 3N       N/A         84  37  19  W5      29.97F
#ELGIN 1E       N/A         86  44  23  CALM    N/A
#IMBLER SCHOOL  N/A         80  42  26  CALM    29.97F
#ISLAND CITY 4N N/A         83  57  41  N3      30.07F
#LA GRANDE-LEFFEN/A         87  41  20  N10     27.04F
#UNION 1S       N/A         86  45  24  N8      29.90F
$$

ORZ050-162310-
WALLOWA COUNTY

CITY            SKY/WX      TMP DP  RH  WIND    PRES   REMARKS
JOSEPH AIRPORT  SUNNY       79  36  21  CALM    30.09F
#ENTERPRISE HS  N/A         80  45  29  CALM    29.80F
#IMNAHA SCHOOL  N/A         89  37  16  SE5     29.93F
#IMNAHA 10S     N/A         86  38  18  NE2     29.98F
#JOSEPH         N/A         76  34  22  NW9     29.96F
#JOSEPH 3N      N/A         77  37  24  W2      30.09F
#JOSEPH 3W      N/A         76  47  36  E3      29.94F
#LOSTINE        N/A         82  42  24  N3      29.71F
#LOSTINE 3SE    N/A         80  40  24  E7      30.08F
#MT HOWARD 8000 N/A         58  39  49  N3      30.32S
#PROMISE 1S     N/A         78  45  31  W6      29.97F
#WALLOWA LAKE   N/A         79  44  29  E2      30.12F
#WALLOWA SCHOOL N/A         82  42  24  W1      29.97F



$$



USA.gov is the U.S. government's official web portal to all federal, state and local government web resources and services.